SV2BBO-11 Weather Reports


Display with metric or nautical units.
time (UTC)temp
F
wind
direction
speed
MPH
gust
MPH
rain 1hr
in
rain 24hr
in
rain mn
in
humidity
%
barometer
mb
20260508103737 65 0 0.0 1.0 0.00 0.00 0.00 84 1017.4
20260508084737 66 0 0.0 1.0 0.00 0.00 0.00 75 1017.6
20260508064237 64 0 0.0 1.0 0.00 0.00 0.00 77 1017.3
20260508055237 62 0 0.0 0.0 0.00 0.00 0.00 82 1016.3
20260508054134 62 0 0.0 0.0 0.00 0.00 0.00 82 1016.3
20260508053634 61 0 0.0 0.0 0.00 0.00 0.00 82 1016.3
20260508015351 60 0 0.0 0.0 0.00 0.00 0.00 81 1015.6
20260508014851 60 0 0.0 0.0 0.00 0.00 0.00 81 1015.6
20260508012051 60 0 0.0 0.0 0.00 0.00 0.00 80 1015.8
20260508011051 60 0 0.0 0.0 0.00 0.00 0.00 80 1016.0
20260508010051 61 0 0.0 0.0 0.00 0.00 0.00 80 1016.1
20260508004438 61 0 0.0 0.0 0.00 0.00 0.00 80 1016.2
20260508001938 61 0 0.0 0.0 0.00 0.00 0.00 81 1016.3
20260508001438 61 0 0.0 0.0 0.00 0.00 0.00 81 1016.4
20260507235938 61 0 0.0 0.0 0.00 0.00 0.00 81 1016.4
20260507234938 61 0 0.0 0.0 0.00 0.00 0.00 80 1016.6
20260507232938 61 0 0.0 0.0 0.00 0.00 0.00 80 1016.6
20260507224617 62 0 0.0 0.0 0.00 0.00 0.00 79 1017.0
20260507220117 62 0 0.0 0.0 0.00 0.00 0.00 78 1017.2
20260507212231 62 0 0.0 0.0 0.00 0.00 0.00 77 1017.2
20260507193101 64 0 0.0 0.0 0.00 0.00 0.00 75 1016.9
20260507192601 64 0 0.0 0.0 0.00 0.00 0.00 75 1017.0